Tracking 20083 objects as of 12-Dec-2019
HD Live streaming from Space Station
objects crossing your sky now

COSMOS 2251 DEB

Track COSMOS 2251 DEB now!
10-day predictions


NORAD ID: 35702
Int'l Code: 1993-036APX
Perigee: 681.9 km
Apogee: 722.9 km
Inclination: 74.0 °
Period: 98.7 minutes
Semi major axis: 7073 km
RCS: 0.0046 m2 (small)
Launch date: June 16, 1993
Source: Commonwealth of Independent States (former USSR) (CIS)
Launch site: PLESETSK MISSILE AND SPACE COMPLEX (PKMTR)

Note: This is SATELLITE DEBRIS
aabbcc
Your satellite tracking list
Your tracking list is empty




NASA's NSSDC Master Catalog

Two Line Element Set (TLE):
1 35702U 93036APX 19345.85969067  .00001204  00000-0  25929-3 0  9997
2 35702  74.0398 172.7899 0028974  79.9169 280.5263 14.59351659553056
Source of the keplerian elements: AFSPC